Temp
-10 -10 -10 -10 -10 -10 -10 -10 -10 -10 -11 -11 -11 -11 -11 -11 -11 -10 -10 -9 -9 -8 -8 -8 -8 -8 -7 -7 -7 -7 -7 -6 -6 -6 -6 -5 -5 -5 -5 -5 -5 -5
-10 -10 -10 -11 -11 -11 -11 -11 -11 -11 -11 -11 -11 -11 -11 -11 -11 -11 -11 -10 -10 -9 -9 -9 -9 -8 -8 -8 -8 -7 -7 -7 -7 -7 -6 -6 -6 -6 -5 -5 -6 -6
-10 -10 -10 -10 -11 -11 -11 -11 -11 -11 -11 -11 -11 -11 -11 -11 -11 -11 -11 -11 -11 -11 -10 -10 -9 -9 -9 -9 -8 -8 -8 -8 -7 -7 -7 -7 -7 -6 -6 -6 -6 -6
-10 -10 -10 -11 -11 -11 -11 -11 -11 -11 -11 -12 -12 -12 -12 -12 -11 -11 -12 -12 -11 -11 -11 -11 -10 -10 -10 -10 -9 -9 -9 -8 -8 -8 -8 -7 -7 -7 -7 -7 -6 -6
-10 -10 -11 -11 -11 -11 -11 -11 -11 -11 -12 -12 -12 -12 -12 -12 -12 -12 -12 -12 -12 -12 -12 -12 -12 -11 -10 -10 -10 -10 -10 -9 -9 -9 -8 -8 -8 -8 -8 -7 -7 -7
-10 -10 -11 -11 -11 -11 -11 -11 -11 -12 -12 -12 -12 -12 -12 -12 -13 -13 -13 -12 -12 -12 -12 -12 -13 -12 -12 -11 -11 -11 -11 -10 -10 -10 -10 -9 -9 -8 -8 -8 -8 -7
-10 -10 -11 -11 -11 -11 -11 -11 -11 -12 -12 -12 -12 -12 -13 -13 -13 -13 -13 -13 -13 -13 -13 -13 -13 -13 -13 -12 -12 -11 -11 -11 -11 -11 -10 -10 -10 -9 -9 -8 -8 -8
-10 -10 -11 -11 -11 -11 -11 -11 -11 -12 -12 -12 -12 -13 -13 -13 -13 -13 -14 -14 -14 -13 -13 -13 -13 -13 -14 -14 -13 -13 -12 -12 -12 -11 -11 -10 -10 -10 -9 -9 -9 -8
-10 -11 -11 -11 -11 -11 -11 -11 -12 -12 -12 -12 -12 -13 -13 -13 -13 -14 -14 -14 -14 -14 -14 -14 -14 -14 -14 -14 -14 -14 -14 -13 -12 -12 -12 -12 -11 -11 -10 -10 -10 -9
-11 -11 -11 -11 -11 -11 -11 -12 -12 -12 -12 -12 -13 -13 -13 -13 -13 -14 -14 -14 -14 -14 -14 -14 -14 -14 -14 -14 -15 -15 -15 -14 -13 -13 -13 -13 -13 -12 -12 -11 -11 -10
-10 -11 -11 -11 -11 -11 -12 -12 -12 -12 -13 -13 -13 -13 -13 -14 -14 -14 -14 -14 -15 -15 -14 -14 -15 -15 -15 -15 -15 -15 -15 -15 -15 -14 -14 -14 -14 -14 -14 -13 -12 -12
-11 -11 -11 -11 -12 -12 -12 -13 -13 -13 -13 -13 -13 -13 -13 -14 -14 -14 -15 -15 -15 -15 -15 -15 -15 -15 -15 -15 -16 -16 -16 -16 -16 -15 -15 -15 -15 -15 -14 -14 -13 -12
-11 -11 -11 -12 -12 -12 -13 -13 -13 -13 -13 -13 -13 -13 -14 -14 -14 -15 -15 -15 -15 -15 -15 -15 -15 -16 -16 -16 -16 -16 -16 -16 -16 -17 -17 -16 -15 -15 -14 -14 -14 -13
-11 -12 -12 -12 -12 -13 -13 -13 -13 -13 -13 -13 -14 -14 -14 -15 -15 -15 -15 -15 -16 -16 -16 -16 -16 -16 -16 -17 -17 -17 -17 -17 -17 -17 -17 -16 -16 -15 -15 -14 -14 -14
-12 -12 -12 -12 -13 -13 -13 -13 -14 -14 -14 -14 -14 -15 -15 -15 -16 -16 -16 -16 -16 -16 -16 -16 -16 -16 -17 -17 -18 -17 -18 -18 -17 -17 -17 -16 -16 -16 -16 -15 -15 -15
-12 -12 -12 -13 -13 -13 -14 -14 -14 -14 -14 -15 -15 -15 -16 -16 -16 -16 -16 -16 -17 -17 -17 -17 -17 -17 -18 -18 -18 -18 -18 -18 -17 -17 -17 -17 -16 -16 -16 -16 -16 -15
-13 -13 -13 -13 -13 -14 -14 -15 -15 -15 -15 -15 -16 -16 -16 -16 -16 -16 -17 -17 -17 -17 -17 -17 -17 -17 -18 -18 -19 -19 -18 -18 -17 -17 -17 -17 -17 -16 -16 -16 -16 -16
-13 -13 -13 -14 -14 -15 -15 -15 -15 -15 -15 -16 -16 -16 -16 -17 -17 -17 -17 -17 -17 -17 -17 -17 -18 -18 -19 -19 -19 -19 -18 -18 -18 -18 -17 -17 -17 -17 -17 -17 -17 -16
-13 -14 -14 -15 -15 -15 -15 -15 -15 -16 -16 -16 -16 -17 -17 -17 -17 -17 -18 -18 -18 -18 -18 -18 -18 -19 -19 -19 -19 -19 -18 -18 -18 -18 -18 -18 -18 -17 -17 -17 -17 -17
-14 -15 -15 -15 -15 -16 -16 -16 -16 -16 -17 -17 -17 -17 -17 -17 -18 -18 -18 -18 -18 -18 -19 -19 -19 -19 -20 -20 -20 -19 -19 -18 -19 -19 -19 -19 -18 -18 -18 -18 -18 -18
-15 -16 -16 -16 -16 -16 -17 -17 -17 -17 -17 -17 -18 -18 -18 -18 -19 -19 -19 -19 -19 -19 -19 -20 -20 -20 -20 -20 -20 -20 -19 -19 -19 -19 -19 -19 -19 -19 -20 -20 -20 -19
-16 -16 -16 -17 -17 -17 -17 -18 -18 -18 -18 -18 -18 -19 -19 -19 -19 -19 -19 -20 -20 -20 -20 -20 -20 -21 -21 -21 -21 -20 -19 -20 -20 -20 -20 -20 -20 -20 -21 -21 -20 -20
-17 -17 -17 -18 -18 -18 -18 -18 -18 -19 -19 -19 -19 -19 -20 -20 -20 -20 -20 -20 -20 -21 -21 -21 -21 -21 -21 -21 -21 -20 -20 -20 -20 -20 -20 -20 -20 -21 -21 -21 -21 -20
-17 -18 -18 -18 -18 -19 -19 -19 -19 -19 -20 -20 -20 -20 -20 -20 -20 -20 -21 -21 -21 -21 -21 -21 -21 -22 -21 -21 -21 -21 -20 -20 -21 -21 -21 -21 -21 -21 -21 -21 -21 -20
-18 -18 -18 -19 -19 -19 -20 -20 -20 -20 -20 -20 -20 -20 -20 -20 -21 -21 -21 -21 -22 -22 -22 -22 -22 -22 -22 -21 -21 -21 -21 -21 -21 -21 -21 -21 -21 -21 -21 -21 -21 -21
-19 -19 -19 -20 -20 -20 -20 -20 -21 -21 -21 -21 -21 -21 -21 -21 -21 -21 -21 -22 -22 -22 -22 -22 -22 -22 -22 -22 -21 -21 -21 -22 -22 -22 -22 -22 -22 -22 -21 -22 -21 -21
Height
1501 1499 1497 1496 1494 1493 1491 1489 1487 1485 1483 1480 1478 1476 1473 1471 1470 1469 1469 1467 1465 1464 1463 1462 1461 1460 1458 1457 1457 1456 1455 1455 1454 1454 1453 1453 1453 1453 1452 1452 1452 1453
1499 1497 1496 1494 1492 1491 1490 1488 1487 1485 1483 1480 1478 1476 1473 1471 1468 1466 1465 1465 1464 1462 1461 1459 1458 1457 1456 1455 1454 1453 1453 1452 1452 1451 1451 1450 1450 1449 1449 1449 1449 1449
1497 1496 1494 1493 1491 1489 1488 1486 1485 1483 1482 1480 1478 1476 1473 1471 1468 1465 1463 1462 1461 1460 1459 1457 1456 1454 1453 1452 1452 1451 1450 1450 1449 1449 1448 1447 1447 1446 1445 1445 1445 1445
1495 1494 1492 1491 1489 1487 1486 1484 1482 1481 1479 1478 1476 1474 1472 1470 1468 1465 1463 1460 1458 1457 1456 1455 1454 1452 1451 1450 1449 1448 1448 1447 1446 1446 1445 1444 1444 1443 1442 1442 1441 1441
1493 1491 1490 1488 1486 1485 1483 1481 1480 1478 1476 1475 1473 1472 1470 1468 1466 1464 1462 1459 1457 1454 1453 1452 1451 1450 1449 1448 1446 1445 1444 1444 1443 1442 1441 1441 1441 1440 1439 1439 1438 1438
1490 1489 1487 1485 1484 1482 1481 1479 1477 1476 1474 1472 1470 1469 1468 1466 1464 1462 1460 1458 1456 1453 1451 1449 1448 1447 1446 1445 1444 1442 1441 1440 1440 1439 1438 1437 1437 1437 1437 1436 1435 1435
1488 1487 1485 1483 1481 1479 1478 1476 1475 1473 1471 1470 1468 1466 1465 1463 1462 1460 1458 1456 1454 1452 1450 1447 1445 1443 1442 1442 1441 1440 1438 1437 1436 1435 1434 1434 1433 1433 1433 1433 1432 1432
1485 1484 1482 1481 1479 1477 1475 1474 1472 1471 1469 1467 1465 1463 1462 1460 1459 1457 1455 1454 1452 1450 1448 1446 1444 1441 1439 1439 1438 1437 1435 1434 1433 1432 1431 1430 1430 1430 1430 1430 1429 1428
1482 1480 1479 1478 1476 1475 1473 1471 1470 1468 1466 1464 1462 1461 1459 1458 1456 1454 1453 1451 1449 1448 1446 1444 1442 1440 1438 1436 1435 1433 1432 1431 1430 1429 1428 1428 1427 1426 1426 1426 1426 1425
1478 1477 1476 1474 1473 1472 1470 1469 1467 1466 1464 1462 1460 1458 1457 1455 1453 1451 1449 1448 1447 1445 1443 1441 1439 1437 1435 1434 1432 1431 1429 1428 1428 1427 1426 1425 1424 1424 1424 1423 1423 1422
1474 1473 1472 1470 1469 1468 1467 1466 1464 1463 1461 1459 1457 1455 1454 1452 1450 1448 1446 1445 1443 1442 1440 1438 1436 1434 1433 1431 1430 1428 1427 1425 1425 1424 1424 1423 1423 1422 1422 1421 1421 1420
1470 1469 1468 1466 1465 1465 1464 1462 1461 1459 1457 1456 1454 1453 1451 1449 1447 1445 1443 1441 1440 1438 1437 1435 1433 1432 1430 1428 1427 1426 1425 1423 1422 1422 1422 1422 1421 1421 1420 1420 1419 1418
1466 1465 1464 1462 1461 1461 1460 1458 1457 1455 1454 1452 1451 1449 1447 1445 1443 1442 1440 1438 1437 1435 1433 1432 1430 1429 1427 1425 1424 1423 1422 1421 1421 1420 1420 1420 1420 1419 1418 1418 1417 1416
1462 1461 1460 1458 1458 1457 1455 1454 1452 1451 1449 1448 1447 1445 1444 1442 1440 1439 1437 1435 1434 1432 1430 1428 1427 1425 1424 1423 1422 1421 1420 1419 1419 1419 1418 1418 1418 1417 1416 1416 1414 1414
1459 1457 1456 1455 1454 1452 1451 1449 1448 1447 1445 1444 1443 1441 1440 1438 1437 1436 1434 1432 1430 1429 1427 1425 1423 1422 1421 1420 1419 1419 1418 1418 1417 1417 1416 1416 1416 1415 1414 1414 1412 1412
1455 1454 1452 1451 1450 1448 1447 1446 1444 1443 1441 1440 1439 1437 1436 1435 1434 1432 1431 1429 1427 1425 1423 1422 1420 1419 1418 1418 1417 1417 1417 1416 1415 1415 1414 1414 1413 1413 1412 1411 1411 1410
1451 1450 1449 1447 1446 1444 1443 1442 1441 1439 1438 1437 1435 1434 1433 1432 1430 1429 1427 1426 1424 1422 1420 1418 1417 1416 1415 1415 1415 1415 1415 1414 1413 1413 1412 1412 1411 1410 1410 1409 1409 1408
1448 1446 1445 1443 1442 1441 1440 1439 1438 1436 1435 1434 1433 1431 1430 1428 1427 1425 1424 1422 1420 1419 1417 1415 1414 1413 1413 1413 1413 1414 1414 1412 1411 1410 1410 1410 1409 1409 1408 1407 1407 1406
1444 1442 1441 1440 1439 1438 1437 1436 1435 1434 1433 1431 1430 1428 1426 1425 1423 1421 1420 1418 1417 1415 1413 1412 1411 1410 1410 1410 1411 1412 1412 1410 1409 1408 1408 1408 1408 1407 1407 1405 1405 1404
1440 1439 1438 1437 1436 1435 1434 1433 1432 1431 1429 1428 1426 1424 1422 1421 1419 1417 1416 1415 1413 1411 1410 1409 1408 1408 1408 1408 1409 1411 1410 1408 1407 1406 1406 1406 1405 1404 1404 1403 1402 1402
1438 1437 1436 1435 1434 1433 1431 1430 1429 1427 1426 1424 1422 1420 1418 1416 1415 1413 1412 1411 1409 1408 1406 1406 1405 1405 1405 1406 1407 1408 1408 1406 1405 1404 1403 1403 1402 1401 1400 1400 1400 1400
1436 1435 1434 1433 1431 1430 1429 1427 1426 1424 1422 1420 1418 1416 1414 1412 1411 1409 1408 1407 1406 1405 1404 1403 1403 1403 1403 1404 1405 1406 1406 1404 1403 1402 1401 1400 1399 1398 1398 1398 1398 1399
1433 1432 1431 1430 1428 1427 1425 1423 1421 1419 1417 1415 1413 1412 1410 1409 1408 1406 1405 1404 1403 1402 1402 1401 1401 1401 1401 1402 1403 1404 1403 1402 1401 1400 1399 1398 1398 1397 1397 1398 1398 1398
1431 1429 1428 1426 1424 1423 1421 1419 1417 1415 1413 1412 1410 1409 1407 1406 1404 1403 1402 1401 1401 1400 1400 1399 1400 1400 1400 1400 1401 1401 1401 1399 1399 1398 1398 1397 1396 1396 1396 1397 1397 1397
1428 1426 1424 1422 1420 1419 1417 1415 1413 1412 1410 1409 1407 1406 1404 1403 1401 1400 1400 1399 1398 1398 1398 1398 1398 1399 1399 1399 1400 1399 1398 1397 1397 1397 1396 1396 1396 1395 1395 1395 1395 1395
1425 1423 1421 1419 1417 1415 1414 1412 1410 1409 1407 1405 1404 1403 1401 1400 1399 1398 1397 1397 1397 1397 1397 1397 1397 1397 1398 1398 1398 1397 1396 1396 1395 1395 1395 1395 1395 1394 1394 1394 1394 1394
Wind_Speed
26 27 25 23 22 22 22 22 22 23 24 26 28 29 30 31 29 26 22 21 23 25 24 23 23 24 25 25 24 25 24 24 23 23 25 26 26 26 25 24 24 24
27 28 27 26 24 23 23 23 23 23 24 25 27 28 29 30 31 31 28 24 21 22 24 25 24 24 25 25 25 26 25 25 24 23 24 24 25 26 27 26 24 23
27 28 29 28 26 25 25 26 26 26 26 27 28 29 29 30 30 31 31 30 26 22 22 23 25 25 24 24 25 25 26 26 26 25 25 24 23 24 26 26 26 25
27 28 29 30 28 26 26 27 28 30 30 30 30 31 32 31 31 30 30 31 31 28 24 22 23 25 25 25 24 24 25 25 26 26 27 26 24 24 24 24 25 26
27 28 29 31 29 27 27 28 29 32 33 33 32 33 34 34 33 32 30 30 31 32 30 26 24 24 25 25 25 24 24 25 25 25 27 27 26 25 25 24 25 25
25 28 30 31 29 27 27 28 30 32 34 35 34 34 35 36 36 34 32 30 30 31 32 31 29 26 25 24 25 25 24 24 24 24 25 27 27 26 26 25 25 25
24 27 28 29 29 28 28 29 30 32 34 36 35 34 34 35 36 35 34 33 31 31 31 31 31 30 28 25 24 25 25 25 24 24 25 26 26 26 26 25 26 26
24 25 26 27 28 28 29 29 30 32 35 36 37 35 34 35 36 36 35 34 34 33 32 31 30 31 31 28 25 24 25 25 25 24 25 25 25 25 25 25 25 25
24 25 26 27 28 28 29 29 30 32 34 36 37 36 35 35 36 35 35 34 35 36 35 34 31 29 30 29 27 25 24 25 25 24 23 23 23 24 23 23 24 25
24 24 27 28 28 29 28 28 30 32 34 36 37 36 35 35 35 35 35 34 35 37 38 37 34 30 28 28 27 25 24 24 23 23 21 20 19 19 19 20 22 23
25 24 26 28 28 28 27 27 29 32 34 36 37 36 36 36 36 35 35 34 35 37 39 39 37 32 28 28 27 24 23 23 22 21 19 16 14 15 15 16 17 19
26 25 26 27 26 25 25 27 29 32 34 35 36 36 36 36 36 35 34 34 35 37 39 40 39 33 28 27 26 23 22 21 20 17 14 11 10 12 13 14 15 15
27 26 26 26 24 23 25 28 30 32 33 34 34 36 36 35 34 33 33 34 35 37 38 40 39 33 27 25 24 22 20 18 15 14 11 9 11 13 13 13 15 16
28 26 26 26 24 25 28 30 30 31 33 34 34 34 33 32 32 32 32 34 35 36 37 40 39 32 26 24 22 19 17 14 11 11 10 9 12 15 15 14 15 16
26 26 27 27 27 29 32 31 29 31 33 33 33 32 31 30 30 31 32 34 36 36 37 39 37 30 24 21 19 16 13 11 12 13 12 12 14 15 16 17 15 14
24 26 27 29 31 32 31 27 26 29 32 31 30 28 28 28 29 30 33 35 36 36 37 37 34 27 22 19 16 13 11 13 15 15 13 13 15 16 17 20 20 18
25 27 30 32 33 32 28 25 25 27 29 28 27 26 26 28 30 33 35 35 35 35 36 35 30 24 20 16 12 10 12 15 17 15 12 12 13 13 14 16 17 19
28 31 33 33 31 27 25 24 24 25 25 25 26 27 29 31 33 35 35 34 34 34 33 31 27 21 17 13 9 9 13 16 15 14 13 13 13 13 14 14 16 17
31 31 30 28 26 24 23 22 22 23 25 26 28 30 32 34 36 36 35 34 32 31 29 27 23 20 15 11 8 9 12 15 14 12 12 12 12 15 17 19 21 20
29 26 24 23 22 21 20 19 20 23 25 27 30 32 35 37 37 35 32 29 27 27 26 23 20 18 13 9 8 8 11 14 13 11 13 14 16 18 20 21 22 22
22 20 20 20 19 17 17 18 21 24 27 30 33 35 36 35 33 30 27 25 24 23 22 19 17 15 12 9 7 7 11 14 13 13 16 16 17 18 17 16 17 17
18 18 19 19 18 18 20 23 26 29 32 34 35 33 31 29 27 26 24 23 22 20 18 16 14 12 10 9 7 6 11 13 13 14 14 14 15 15 14 13 13 13
18 19 20 21 22 24 27 29 32 33 32 31 29 27 25 25 25 24 22 21 19 17 15 14 11 9 9 8 7 7 10 12 13 13 12 13 14 13 13 12 12 11
24 25 26 28 30 31 32 32 30 28 26 24 24 24 24 25 24 22 20 18 16 14 12 12 9 7 8 8 6 7 10 11 12 12 10 10 12 12 11 12 11 11
28 29 31 33 33 32 29 26 24 22 22 22 23 24 24 23 21 19 17 14 12 11 11 10 8 6 7 6 4 6 9 10 11 10 8 8 11 11 12 12 12 12
30 31 32 31 29 26 23 21 21 22 23 23 24 23 22 19 17 16 13 10 9 9 9 10 8 5 4 3 1 6 9 8 9 9 7 7 10 12 13 14 13 13
Wind_Direction
336 337 337 336 338 343 347 349 348 347 346 345 344 342 340 339 338 336 329 318 311 308 306 303 297 291 286 282 278 276 274 273 273 274 274 272 270 267 265 264 264 264
331 333 334 332 332 333 337 342 346 346 345 345 345 343 340 338 336 337 335 330 319 311 307 305 302 297 291 286 281 277 275 272 271 271 272 272 272 271 268 265 264 265
326 327 329 330 329 328 329 333 338 341 341 341 342 342 341 339 336 335 334 333 330 321 312 306 302 300 297 292 288 282 277 274 272 269 268 268 269 271 270 268 265 263
320 321 323 325 326 327 327 329 332 335 335 336 337 338 338 338 337 335 332 331 331 328 323 313 305 301 299 297 294 289 282 277 273 270 268 266 266 266 267 268 268 265
315 316 319 321 323 325 325 327 329 329 330 331 331 333 335 335 334 334 333 330 329 329 327 322 314 306 300 299 297 294 289 282 276 272 269 266 264 264 264 264 265 266
310 312 314 317 320 322 322 324 325 325 325 325 325 327 329 330 331 332 333 331 329 327 326 324 321 314 307 301 298 296 293 287 282 278 273 269 264 262 262 263 262 261
306 308 311 315 317 318 319 320 321 321 322 320 319 320 323 325 326 327 330 332 330 328 326 324 321 317 314 308 301 297 294 290 286 281 278 274 269 264 262 262 262 260
303 305 308 311 312 314 316 317 318 319 319 316 314 314 316 320 321 322 325 329 330 329 327 325 321 315 314 313 307 299 294 292 289 285 281 278 276 271 266 264 263 261
300 301 304 304 306 309 312 313 313 315 314 312 310 309 311 314 316 317 320 325 328 329 327 325 321 314 311 311 310 304 298 293 291 290 287 283 281 278 273 270 267 264
297 298 300 299 301 304 305 307 309 310 309 308 306 305 306 308 310 312 315 320 325 327 327 325 321 315 309 307 307 306 301 296 292 291 290 288 287 285 280 275 272 269
295 296 298 297 298 300 300 301 303 304 304 303 302 301 302 303 304 306 311 316 322 325 326 324 321 315 308 306 305 304 302 298 294 293 292 290 291 291 285 278 276 275
292 294 295 295 295 295 295 297 298 299 299 298 298 298 297 297 298 301 307 313 319 323 324 324 320 313 307 305 304 302 301 298 298 297 291 283 286 286 279 274 273 274
288 290 292 291 290 290 292 296 296 295 293 293 293 292 291 290 292 298 304 311 317 321 322 323 319 310 304 303 302 302 302 299 301 301 288 276 280 277 270 268 267 265
284 285 287 286 286 289 295 299 297 291 285 282 282 282 282 285 289 296 303 310 317 319 320 320 317 308 301 301 301 300 299 296 301 301 286 271 273 271 268 270 268 263
280 281 283 284 286 293 299 299 294 284 276 273 273 275 277 282 289 297 304 311 315 317 318 318 313 304 299 300 300 297 297 300 305 302 286 271 269 268 268 270 272 270
278 281 283 285 291 297 299 297 291 283 274 269 270 273 277 283 292 300 306 310 314 315 315 314 308 300 297 298 297 298 303 304 301 297 283 268 263 263 263 265 269 273
280 284 287 291 297 300 300 296 291 281 271 268 271 275 281 289 297 303 307 311 313 313 312 309 303 296 295 293 291 297 300 294 289 284 272 259 255 255 258 260 263 268
286 290 293 298 301 302 301 296 287 276 272 275 280 283 289 295 300 305 308 310 310 309 308 304 298 293 292 286 284 298 298 288 283 278 270 263 260 262 267 270 269 269
296 298 300 302 302 300 298 294 286 281 281 284 285 288 293 299 303 306 307 307 306 304 302 298 292 290 287 276 278 299 294 283 279 274 265 261 259 261 265 267 269 270
303 305 304 301 299 295 290 284 280 281 284 286 290 295 299 302 303 303 302 302 302 300 297 292 286 286 281 267 278 301 287 275 275 278 277 274 269 265 264 263 263 266
306 304 300 297 296 291 284 280 281 285 290 295 298 301 302 302 301 300 300 301 299 295 290 286 283 283 275 257 267 297 287 278 281 287 286 278 268 264 261 257 257 261
300 297 297 296 294 290 288 290 293 296 299 301 302 301 301 300 300 300 301 299 294 289 285 282 279 278 268 251 248 274 285 286 290 290 282 267 257 256 250 245 249 258
298 301 301 300 298 298 299 300 302 302 303 302 301 299 299 299 300 301 299 294 289 285 283 281 276 273 265 248 236 255 279 289 291 287 276 258 251 248 241 238 245 258
305 306 306 306 306 306 306 305 305 303 301 300 299 299 300 300 299 298 294 289 286 282 279 277 272 269 262 246 240 266 282 285 282 281 276 259 248 242 239 238 243 256
306 306 307 307 307 306 306 305 304 301 300 301 300 300 300 299 297 295 290 286 280 272 269 270 266 266 262 242 241 284 285 278 275 276 276 261 248 244 246 245 247 256
303 304 306 305 305 305 305 303 302 300 299 300 299 299 299 298 296 293 290 284 271 258 257 260 256 259 257 206 201 296 289 282 280 278 273 266 256 251 252 253 256 262